STARLINK-34471, 64739

Orbit data source: Space-Track

STARLINK-34471, 64739 is a payload satellite owned by SpaceX/Seattle (US) in LEO that was launched on Wed, 02 Jul 2025 UTC via an FALCON 9 launch vehicle from the Air Force Eastern Test Range (AFETR). Payload-class satellites include a variety of spacecraft equipped with specific instruments for various scientific and technological missions. These include communications satellites like Starlink; space stations such as the ISS; scientific satellites like the Hubble; Earth observation satellites from companies like Planet Labs, Umbra, and HawkEye 360; GPS; miniature CubeSats for education and research; and military/defense satellites.

Not visible in the next 10 days
Identifier
64739, 2025-144R
Orbit
LEO
Last TLE update
14 hours ago
Origin
Manufacturer
SpaceX/Seattle
Mission
Operational spacecraft
Bus & Motor
STARLINK V2MO, Unknown motor
Mass
575 kg wet, ~530 kg dry
Launch date (UTC)
2025-07-02 (1 week ago)
Launch vehicle
FALCON 9
Launch site
Air Force Eastern Test Range (AFETR)
Object type
Payload
Rocket body
Debris
Shape & HBR
Unknown
Radar Cross Section
RCS unknown

Expand to show TLE details & history

TLE from 14 hours ago
0 STARLINK-34471
1 64739U 25144R   25191.66668981 -.01219770  00000-0 -48862-2 0  9992
2 64739  53.1539 231.7169 0000812  82.1729  14.7940 15.88189302  2514
Epoch: 2025-07-10T16:00Z
TLE epoch observation values (Epoch: 2025-07-10T16:00:01.999Z)
Latitude
52.74779°
Longitude
164.41368°
Altitude
313.252 km
Speed
7.727 km/s
True Right ascension
22h 13m 00s
True Declination
52° 34' 15"
Sunlit
Object was in daylight at epoch
Visualization orbit readout
Latitude
-52.84191°
Longitude
-40.66487°
Altitude
330.685 km
Speed
7.709 km/s
Apparent Right ascension
07h 28m 18s
Apparent Declination
-47° 18' 00"
Sunlit
Object is in daylight
Visualization observer readout
Local Sidereal Time
18:35:09
Azimuth
228.035° WSW
Elevation
-77.9°
Doppler factor
1
Orbital elements
Apogee altitude
308.166 km
Perigee altitude
307.08 km
Semi-major axis
6,685.76 km
Eccentricity
0.00008
Inclination
53.1539°
RAAN
231.7169°
Arg. of periapsis
82.1729°
True anomaly
Unknown
Mean anomaly
14.794°
Eccentric anomaly
Unknown
Mean motion
3.97024 °/min
Orbital period
90.67 mins
BSTAR
-0.0048862
Loading maneuver chart data...
Loading SW <> Apogee altitude chart data...
Loading historical data...
Loading historical data...
Loading historical data...
Loading historical data...
Loading historical data...
Loading historical data...
Loading historical data...

STARLINK-34471 Visibility

Observer location: undefined°, undefined°

STARLINK-34471 is likely not visible in the next few days
Span
Click to sort rows by Start time (UTC) header in descending order
Start Az.
Max El. time (UTC)
Max El. Az.
Max El.
End time (UTC)
End Az.
|